[Iaude] MPEC V04: 2016 UT80 [a=2.06,e=0.42,i=8.4,H=19.1]

mpec at si.edu mpec at si.edu
Tue Nov 1 20:23:35 EDT 2016


M.P.E.C. 2016-V04                                Issued 2016 Nov. 2, 00:18 UT
 
     The Minor Planet Electronic Circulars contain information on unusual
         minor planets and routine data on comets.  They are published
    on behalf of Division F of the International Astronomical Union by the
          Minor Planet Center, Smithsonian Astrophysical Observatory,
                          Cambridge, MA 02138, U.S.A.

             Prepared using the Tamkin Foundation Computer Network

                              MPC at CFA.HARVARD.EDU
            URL http://www.minorplanetcenter.net/    ISSN 1523-6714


                                   2016 UT80
 
Observations:
     K16U80T* C2016 10 29.33419 02 53 03.45 -01 15 15.8          20.6 VqEV004G96
     K16U80T  C2016 10 29.33995 02 53 03.00 -01 15 18.4          20.7 VqEV004G96
     K16U80T  C2016 10 29.34571 02 53 02.57 -01 15 20.8          20.3 VqEV004G96
     K16U80T  C2016 10 29.37383 02 53 00.41 -01 15 33.5          20.4 VqEV004G96
     K16U80T  C2016 10 29.37916 02 53 00.04 -01 15 35.3          20.7 VqEV004G96
     K16U80T  C2016 10 29.38453 02 52 59.61 -01 15 37.7          20.7 VqEV004G96
     K16U80T  C2016 10 29.39004 02 52 59.20 -01 15 39.1                qEV004G96
     K16U80T  C2016 10 30.20725 02 52 00.04 -01 21 34.4          20.7 VqEV004I52
     K16U80T  C2016 10 30.21065 02 51 59.81 -01 21 35.1          20.4 VqEV004I52
     K16U80T  C2016 10 30.21477 02 51 59.43 -01 21 37.7          20.3 VqEV004I52
     K16U80T  C2016 10 30.21846 02 51 59.19 -01 21 39.2          20.2 VqEV004I52
     K16U80T HC2016 10 30.25125 02 51 56.67 -01 21 52.8          20.8 VoEV004691
     K16U80T HC2016 10 30.25799 02 51 56.17 -01 21 55.6          20.6 VoEV004691
     K16U80T HC2016 10 30.26472 02 51 55.61 -01 21 59.3          20.7 VoEV004691
     K16U80T KC2016 10 31.51321 02 50 22.03 -01 30 32.5          20.7 RtEV004474
     K16U80T KC2016 10 31.51673 02 50 21.76 -01 30 33.6          20.8 RtEV004474
     K16U80T KC2016 10 31.52025 02 50 21.44 -01 30 35.4          20.3 RtEV004474
     K16U80T KC2016 10 31.96814 02 49 47.22 -01 33 54.8                SEV004595
     K16U80T KC2016 10 31.99475 02 49 45.16 -01 34 05.7          20.2 VSEV004595
     K16U80T KC2016 11 01.01017 02 49 44.00 -01 34 11.9          20.5 VqEV004I93
     K16U80T KC2016 11 01.02185 02 49 42.95 -01 34 17.5                SEV004595
     K16U80T KC2016 11 01.03869 02 49 41.73 -01 34 24.1          20.5 VqEV004I93
 
Observer details:
474 Mount John Observatory, Lake Tekapo.  Observers A. C. Gilmore,
    P. M. Kilmartin.  Measurer P. M. Kilmartin.  1.0-m f/7.7 reflector + CCD.
595 Farra d'Isonzo.  Observer E. Pettarin.  0.61-m f/4.0 reflector + CCD.
691 Steward Observatory, Kitt Peak.  Observer M. T. Read.  0.9-m f/3 reflector
    + CCD.
G96 Mt. Lemmon Survey.  Observer D. C. Fuls.  Measurers E. J. Christensen,
    D. C. Fuls, A. R. Gibbs, A. D. Grauer, J. A. Johnson, R. A. Kowalski,
    S. M. Larson, G. J. Leonard, R. G. Matheny, R. L. Seaman, F. C. Shelly.
    1.5-m reflector + 10K CCD.
I52 Steward Observatory, Mt. Lemmon Station.  Observer J. A. Johnson.
    Measurers E. J. Christensen, D. C. Fuls, A. R. Gibbs, A. D. Grauer,
    J. A. Johnson, R. A. Kowalski, S. M. Larson, G. J. Leonard, R. G. Matheny,
    R. L. Seaman, F. C. Shelly.  1.0-m reflector + CCD.
I93 St Pardon de Conques.  Observer F. Losse.  0.40-m f/3.7 reflector + CCD.
 
Orbital elements:
2016 UT80                                                Earth MOID = 0.2141 AU
Epoch 2016 July 31.0 TT = JDT 2457600.5                 MPC
M 279.98306              (2000.0)            P               Q
n   0.33222407     Peri.   31.15728     -0.72398553     -0.67522698
a   2.0646605      Node   105.67591     +0.59889300     -0.71677941
e   0.4247157      Incl.    8.42801     +0.34230414     -0.17405689
P   2.97           H   19.1           G   0.15           U   9
Residuals in seconds of arc
161029 G96  0.1-  0.4-    161030 I52  0.1-  0.3+    161031 474  0.1-  0.2-
161029 G96  0.3-  0.5-    161030 I52  1.1-  0.5-    161031 595  0.8-  0.0
161029 G96  0.2-  0.3-    161030 I52  0.4-  0.4-    161031 595  0.1+  0.0
161029 G96  0.5-  0.7-    161030 691  0.4-  0.0     161101 I93  0.7-  0.1-
161029 G96  0.0   0.2-    161030 691  0.1-  0.1+    161101 595  0.7-  0.8-
161029 G96  0.4-  0.3-    161030 691  0.7-  0.8-    161101 I93  0.6-  0.6-
161029 G96  0.2-  0.8+    161031 474  0.4+  0.2-
161030 I52  0.6-  0.5-    161031 474  0.5+  0.2+

Ephemeris:
2016 UT80                a,e,i = 2.06, 0.42, 8                   q = 1.1878
Date    TT    R. A. (2000) Decl.     Delta      r     Elong.  Phase     V
2016 10 03    03 12 11.6 +02 11 17   1.0737  1.9564   141.1    18.7    21.7
...
2016 10 18    03 04 34.7 +00 14 06   0.9241  1.8754   155.1    12.9    21.1
...
2016 10 26    02 56 54.7 -00 50 02   0.8626  1.8314   161.0    10.2    20.7
...
2016 11 01    02 49 44.9 -01 34 00   0.8256  1.7981   162.9     9.3    20.6
2016 11 02    02 48 27.6 -01 40 43   0.8202  1.7926   162.9     9.4    20.6
2016 11 03    02 47 09.0 -01 47 13   0.8151  1.7870   162.8     9.4    20.5
...
2016 11 09    02 38 56.1 -02 20 50   0.7890  1.7535   160.3    11.0    20.5
...
2016 11 17    02 27 39.5 -02 47 37   0.7663  1.7086   153.4    15.0    20.5
...
2016 12 02    02 09 16.3 -02 27 42   0.7568  1.6245   137.2    24.4    20.7

A. U. Tomatic                (C) Copyright 2016 MPC           M.P.E.C. 2016-V04




More information about the Iaude mailing list